When you browse on this site, cookies collect data to enhance your experience and personalize the content and advertising you see.
Visit our Privacy Policy to learn more. By continuing to use the site, you agree to this use of cookies and data.
  • In Lithuania
  • List of Countries
  • For 7 days
  • Water Temperature
  • Satellite Maps
  • Weather Map
  • Weather Widgets
  • user-avatar
    Login

    Hourly Weather Shkoder

    Today, 18 December, Tuesday

    Time Temperature Precipitation Wind Pressure Humidity
    00:00 -1°C° 0.8 mm 6 mps 740 mmHg 81%
    01:00 0°C° 0 mm 5 mps 740 mmHg 84%
    02:00 0°C° 0.3 mm 5 mps 741 mmHg 83%
    03:00 0°C° 0.3 mm 5 mps 741 mmHg 83%
    04:00 0°C° 0.3 mm 5 mps 741 mmHg 82%
    05:00 0°C° 0.2 mm 5 mps 741 mmHg 82%
    06:00 0°C° 0.2 mm 5 mps 742 mmHg 82%
    07:00 -2°C° 0 mm 6 mps 742 mmHg 83%
    08:00 -1°C° 0.2 mm 6 mps 742 mmHg 81%
    09:00 -1°C° 0.2 mm 6 mps 743 mmHg 80%
    10:00 -1°C° 0.2 mm 6 mps 743 mmHg 79%
    11:00 +1°C° 0.1 mm 5 mps 743 mmHg 79%
    12:00 +1°C° 0.1 mm 5 mps 743 mmHg 79%
    13:00 +3°C° 0 mm 4 mps 743 mmHg 80%
    14:00 +1°C° 0.1 mm 4 mps 743 mmHg 80%
    15:00 +1°C° 0.1 mm 4 mps 744 mmHg 81%
    16:00 0°C° 0.1 mm 4 mps 744 mmHg 81%
    17:00 0°C° 0 mm 4 mps 744 mmHg 81%
    18:00 0°C° 0 mm 4 mps 745 mmHg 81%
    19:00 -1°C° 0 mm 4 mps 745 mmHg 82%
    20:00 -1°C° 0 mm 4 mps 745 mmHg 82%
    21:00 -1°C° 0 mm 4 mps 745 mmHg 82%
    22:00 -2°C° 0 mm 4 mps 745 mmHg 82%
    23:00 -2°C° 0 mm 4 mps 746 mmHg 82%

    Tomorrow, 19 December, Wednesday

    Time Temperature Precipitation Wind Pressure Humidity
    00:00 -2°C° 0 mm 4 mps 746 mmHg 81%
    01:00 -3°C° 0 mm 4 mps 746 mmHg 81%
    02:00 -3°C° 0 mm 4 mps 746 mmHg 81%
    03:00 -3°C° 0 mm 4 mps 746 mmHg 81%
    04:00 -3°C° 0 mm 4 mps 746 mmHg 81%
    05:00 -3°C° 0 mm 4 mps 746 mmHg 81%
    06:00 -3°C° 0 mm 4 mps 746 mmHg 81%
    07:00 -2°C° 0 mm 3 mps 746 mmHg 81%
    08:00 -1°C° 0 mm 3 mps 746 mmHg 79%
    09:00 +1°C° 0 mm 3 mps 747 mmHg 77%
    10:00 +3°C° 0 mm 3 mps 747 mmHg 75%
    11:00 +5°C° 0 mm 2 mps 746 mmHg 75%
    12:00 +6°C° 0 mm 2 mps 746 mmHg 75%
    13:00 +8°C° 0 mm 1 mps 746 mmHg 75%
    14:00 +7°C° 0 mm 1 mps 746 mmHg 77%
    15:00 +6°C° 0 mm 1 mps 746 mmHg 79%
    16:00 +5°C° 0 mm 1 mps 746 mmHg 81%
    17:00 +4°C° 0 mm 1 mps 746 mmHg 80%
    18:00 +4°C° 0 mm 1 mps 746 mmHg 79%
    19:00 +3°C° 0 mm 1 mps 746 mmHg 78%
    20:00 +2°C° 0 mm 2 mps 746 mmHg 76%
    21:00 +2°C° 0 mm 2 mps 746 mmHg 75%
    22:00 +2°C° 0 mm 2 mps 746 mmHg 73%
    23:00 +3°C° 0 mm 2 mps 746 mmHg 71%

    Day after tomorrow, 20 December, Thursday

    Time Temperature Precipitation Wind Pressure Humidity
    00:00 +3°C° 0 mm 2 mps 746 mmHg 70%
    01:00 +3°C° 0 mm 2 mps 746 mmHg 68%
    02:00 +3°C° 0 mm 2 mps 746 mmHg 68%
    03:00 +3°C° 0 mm 2 mps 746 mmHg 67%
    04:00 +3°C° 0 mm 2 mps 746 mmHg 66%
    05:00 +3°C° 0 mm 2 mps 746 mmHg 66%
    06:00 +3°C° 0 mm 2 mps 746 mmHg 66%
    07:00 +3°C° 0 mm 2 mps 746 mmHg 66%
    08:00 +4°C° 0 mm 2 mps 746 mmHg 66%
    09:00 +6°C° 0 mm 2 mps 746 mmHg 66%
    10:00 +7°C° 0 mm 2 mps 747 mmHg 66%
    11:00 +8°C° 0 mm 2 mps 746 mmHg 68%
    12:00 +8°C° 0 mm 2 mps 746 mmHg 69%
    13:00 +9°C° 0 mm 2 mps 746 mmHg 71%
    14:00 +8°C° 0 mm 2 mps 746 mmHg 73%
    15:00 +7°C° 0 mm 2 mps 746 mmHg 76%
    16:00 +5°C° 0 mm 2 mps 746 mmHg 78%
    17:00 +5°C° 0 mm 2 mps 746 mmHg 79%
    18:00 +5°C° 0 mm 2 mps 746 mmHg 79%
    19:00 +5°C° 0 mm 2 mps 747 mmHg 80%
    20:00 +5°C° 0 mm 2 mps 747 mmHg 81%
    21:00 +5°C° 0 mm 2 mps 747 mmHg 81%
    22:00 +5°C° 0 mm 2 mps 747 mmHg 82%
    23:00 +6°C° 0.1 mm 2 mps 747 mmHg 83%

    21 December, Friday

    Time Temperature Precipitation Wind Pressure Humidity
    00:00 +6°C° 0.1 mm 2 mps 747 mmHg 84%
    01:00 +6°C° 0.1 mm 2 mps 747 mmHg 85%
    02:00 +6°C° 0.2 mm 2 mps 747 mmHg 86%
    03:00 +7°C° 0.2 mm 2 mps 747 mmHg 87%
    04:00 +7°C° 0.2 mm 2 mps 747 mmHg 89%
    05:00 +7°C° 0.2 mm 2 mps 747 mmHg 89%
    06:00 +8°C° 0.2 mm 1 mps 747 mmHg 89%
    07:00 +8°C° 0.2 mm 1 mps 747 mmHg 89%
    08:00 +8°C° 0.1 mm 1 mps 747 mmHg 89%
    09:00 +9°C° 0.1 mm 1 mps 748 mmHg 90%
    10:00 +10°C° 0.1 mm 1 mps 748 mmHg 90%
    11:00 +10°C° 0 mm 1 mps 747 mmHg 89%
    12:00 +10°C° 0 mm 1 mps 747 mmHg 89%
    13:00 +10°C° 0 mm 1 mps 747 mmHg 89%
    14:00 +10°C° 0 mm 1 mps 747 mmHg 90%
    15:00 +10°C° 0 mm 1 mps 747 mmHg 92%
    16:00 +9°C° 0 mm 1 mps 747 mmHg 93%
    17:00 +9°C° 0 mm 1 mps 747 mmHg 93%
    18:00 +8°C° 0 mm 1 mps 747 mmHg 93%
    19:00 +7°C° 0 mm 2 mps 748 mmHg 93%
    20:00 +7°C° 0 mm 2 mps 748 mmHg 92%
    21:00 +6°C° 0 mm 2 mps 748 mmHg 92%
    22:00 +6°C° 0 mm 2 mps 748 mmHg 92%
    23:00 +6°C° 0 mm 2 mps 748 mmHg 91%

    22 December, Saturday

    Time Temperature Precipitation Wind Pressure Humidity
    00:00 +6°C° 0 mm 2 mps 748 mmHg 91%
    01:00 +6°C° 0 mm 2 mps 747 mmHg 90%
    02:00 +6°C° 0 mm 2 mps 747 mmHg 90%
    03:00 +6°C° 0 mm 2 mps 747 mmHg 90%
    04:00 +6°C° 0 mm 2 mps 747 mmHg 90%
    05:00 +6°C° 0 mm 2 mps 747 mmHg 89%
    06:00 +6°C° 0 mm 2 mps 747 mmHg 89%
    07:00 +6°C° 0 mm 2 mps 747 mmHg 89%
    08:00 +7°C° 0 mm 2 mps 747 mmHg 88%
    09:00 +8°C° 0 mm 2 mps 747 mmHg 87%
    10:00 +9°C° 0 mm 2 mps 747 mmHg 86%
    11:00 +10°C° 0 mm 2 mps 747 mmHg 87%
    12:00 +10°C° 0 mm 2 mps 746 mmHg 87%
    13:00 +10°C° 0 mm 2 mps 746 mmHg 87%
    14:00 +10°C° 0.1 mm 2 mps 746 mmHg 89%
    15:00 +9°C° 0.1 mm 2 mps 746 mmHg 91%
    16:00 +9°C° 0.1 mm 2 mps 746 mmHg 93%
    17:00 +9°C° 0 mm 2 mps 746 mmHg 94%
    18:00 +9°C° 0 mm 2 mps 746 mmHg 94%
    19:00 +8°C° 0 mm 2 mps 746 mmHg 94%
    20:00 +8°C° 0 mm 2 mps 746 mmHg 94%
    21:00 +8°C° 0 mm 2 mps 746 mmHg 94%
    22:00 +8°C° 0 mm 2 mps 746 mmHg 94%
    23:00 +8°C° 0 mm 2 mps 746 mmHg 93%

    23 December, Sunday

    Time Temperature Precipitation Wind Pressure Humidity
    00:00 +8°C° 0 mm 2 mps 746 mmHg 93%
    01:00 +8°C° 0 mm 2 mps 746 mmHg 93%
    02:00 +8°C° 0 mm 2 mps 745 mmHg 92%
    03:00 +8°C° 0 mm 2 mps 745 mmHg 92%
    04:00 +8°C° 0 mm 2 mps 745 mmHg 91%
    05:00 +7°C° 0 mm 2 mps 745 mmHg 91%
    06:00 +7°C° 0 mm 2 mps 746 mmHg 91%
    07:00 +7°C° 0 mm 2 mps 746 mmHg 90%
    08:00 +8°C° 0 mm 2 mps 746 mmHg 88%
    09:00 +10°C° 0 mm 1 mps 746 mmHg 86%
    10:00 +11°C° 0 mm 1 mps 747 mmHg 83%
    11:00 +12°C° 0 mm 1 mps 746 mmHg 83%
    12:00 +12°C° 0 mm 1 mps 746 mmHg 82%
    13:00 +13°C° 0 mm 1 mps 746 mmHg 81%
    14:00 +12°C° 0 mm 1 mps 746 mmHg 85%
    15:00 +11°C° 0 mm 1 mps 746 mmHg 88%
    16:00 +11°C° 0 mm 1 mps 746 mmHg 92%
    17:00 +10°C° 0 mm 1 mps 746 mmHg 91%
    18:00 +10°C° 0 mm 1 mps 746 mmHg 91%
    19:00 +9°C° 0 mm 1 mps 746 mmHg 91%
    20:00 +9°C° 0 mm 1 mps 746 mmHg 89%
    21:00 +9°C° 0 mm 1 mps 747 mmHg 88%
    22:00 +9°C° 0 mm 1 mps 747 mmHg 87%
    23:00 +9°C° 0 mm 1 mps 746 mmHg 87%
    Show more